Date String (YYYY-MM-DD hh:mm:ss) UTC,Instrument flags,absolute air pressure of the measurement (hPa),sample flow rate (lpm),inlet stack bypass flow (lpm),air temperature of the measurement (°C),ambient temperature measured by the external sensor (°C),aerosol sample conditioner tube jacket temperature (°C),OPC LED temperature (°C),internal box temperature (°C),relative humidity of the measurement (%),span deviation,mass concentration of particles derived from Lorenz-Mie calculation of OPC scattering (μg/m³),mass concentration of particles derived from Lorenz-Mie calculation of OPC scattering (μg/m³),mass concentration of particles derived from Lorenz-Mie calculation of OPC scattering (μg/m³)
DateTimeUTC,F1_M11,P_M11,Q1_M11,Q2_M11,T1_M11,T2_M11,T3_M11,T4_M11,T5_M11,U1_M11,ZSPAN_M11,X2_M11,X0_M11,X1_M11
2023-08-14 20:00:00,SystemResetWarning,0839.6,4.99,000.00,029.2,027.7,000.0,037.5,030.9,22.1,0002.8,0004.86,0011.51,0004.17
2023-08-14 20:01:00,SystemResetWarning,0839.6,4.99,000.00,029.2,027.9,000.0,037.6,031.0,22.2,0002.5,0004.83,0011.42,0004.18
2023-08-14 20:02:00,SystemResetWarning,0839.6,4.99,000.00,029.2,028.0,000.0,037.6,031.0,21.8,0002.1,0004.79,0011.48,0004.18
2023-08-14 20:03:00,SystemResetWarning,0839.6,5.00,000.00,029.3,026.7,000.0,037.5,030.7,21.8,0001.9,0004.77,0011.76,0004.18
2023-08-14 20:04:00,SystemResetWarning,0839.5,5.00,000.00,029.2,025.6,000.0,037.4,030.4,22.3,0002.0,0004.80,0012.16,0004.18
2023-08-14 20:05:00,SystemResetWarning,0839.6,5.01,000.00,029.1,025.7,000.0,037.4,030.3,22.3,0001.9,0004.79,0011.85,0004.19
2023-08-14 20:06:00,SystemResetWarning,0839.7,5.00,000.00,029.0,026.0,000.0,037.4,030.4,22.2,0001.6,0004.77,0011.09,0004.19
2023-08-14 20:07:00,SystemResetWarning,0839.6,5.00,000.00,029.0,026.3,000.0,037.5,030.5,22.2,0001.7,0004.75,0010.63,0004.20
2023-08-14 20:08:00,SystemResetWarning,0839.6,5.01,000.00,029.0,026.7,000.0,037.5,030.6,22.1,0002.3,0004.77,0011.46,0004.21
2023-08-14 20:09:00,SystemResetWarning,0839.6,5.00,000.00,029.1,027.0,000.0,037.5,030.7,22.7,0002.2,0004.84,0013.16,0004.23
2023-08-14 20:10:00,SystemResetWarning,0839.6,5.00,000.00,029.1,027.3,000.0,037.5,030.8,22.6,0002.1,0004.86,0013.36,0004.23
2023-08-14 20:11:00,SystemResetWarning,0839.7,4.99,000.00,029.1,027.6,000.0,037.5,030.9,22.2,0002.0,0004.85,0012.92,0004.22
2023-08-14 20:12:00,SystemResetWarning,0839.7,5.00,000.00,029.2,027.8,000.0,037.6,030.9,22.1,0001.7,0004.91,0013.07,0004.24
2023-08-14 20:13:00,SystemResetWarning,0839.6,5.01,000.00,029.2,028.0,000.0,037.6,031.0,22.0,0001.8,0004.94,0013.62,0004.26
2023-08-14 20:14:00,SystemResetWarning,0839.6,5.00,000.00,029.3,027.1,000.0,037.5,030.9,22.2,0001.0,0004.96,0014.08,0004.28
2023-08-14 20:15:00,SystemResetWarning,0839.6,5.00,000.00,029.2,025.1,000.0,037.4,030.5,22.0,0000.0,0004.93,0013.62,0004.28
2023-08-14 20:16:00,SystemResetWarning,0839.5,5.02,000.00,029.1,024.6,000.0,037.3,030.3,22.2,0000.0,0004.98,0013.79,0004.30
2023-08-14 20:17:00,SystemResetWarning,0839.6,4.99,000.00,029.0,024.9,000.0,037.3,030.2,22.3,0000.3,0005.03,0014.55,0004.31
2023-08-14 20:18:00,SystemResetWarning,0839.7,5.00,000.00,028.9,025.3,000.0,037.3,030.2,22.5,0000.0,0005.09,0015.23,0004.32
2023-08-14 20:19:00,SystemResetWarning,0839.7,5.01,000.00,028.9,025.8,000.0,037.4,030.3,22.2,0000.0,0005.16,0015.54,0004.32
2023-08-14 20:20:00,SystemResetWarning,0839.6,4.99,000.00,028.9,026.2,000.0,037.4,030.4,22.2,0000.0,0005.16,0014.71,0004.32
2023-08-14 20:21:00,SystemResetWarning,0839.6,5.00,000.00,028.9,026.6,000.0,037.4,030.5,22.5,0000.0,0005.18,0015.16,0004.34
2023-08-14 20:22:00,SystemResetWarning,0839.6,5.01,000.00,029.0,027.0,000.0,037.4,030.6,22.1,0000.0,0005.20,0015.62,0004.35
2023-08-14 20:23:00,SystemResetWarning,0839.6,4.99,000.00,029.0,027.2,000.0,037.4,030.7,22.0,0000.0,0005.18,0015.82,0004.35
2023-08-14 20:24:00,SystemResetWarning,0839.6,4.99,000.00,029.0,027.5,000.0,037.4,030.8,22.3,0000.0,0005.17,0015.51,0004.34
2023-08-14 20:25:00,SystemResetWarning,0839.6,4.99,000.00,029.1,027.7,000.0,037.5,030.9,22.4,0000.0,0005.19,0014.79,0004.34
2023-08-14 20:26:00,SystemResetWarning,0839.6,5.00,000.00,029.1,027.9,000.0,037.5,030.9,22.0,0000.0,0005.25,0015.74,0004.35
2023-08-14 20:27:00,SystemResetWarning,0839.5,5.00,000.00,029.2,028.0,000.0,037.5,031.0,21.8,0000.0,0005.20,0016.43,0004.34
2023-08-14 20:28:00,SystemResetWarning,0839.5,5.00,000.00,029.2,026.8,000.0,037.4,030.8,21.9,0000.0,0005.16,0015.94,0004.34
2023-08-14 20:29:00,SystemResetWarning,0839.5,5.00,000.00,029.1,025.6,000.0,037.3,030.5,22.3,0000.6,0005.15,0015.76,0004.34
2023-08-14 20:30:00,SystemResetWarning,0839.5,5.01,000.00,029.1,025.7,000.0,037.3,030.4,22.0,0001.6,0005.14,0015.42,0004.34
2023-08-14 20:31:00,SystemResetWarning,0839.5,5.01,000.00,029.0,025.9,000.0,037.3,030.3,22.0,0002.0,0005.13,0014.79,0004.34
2023-08-14 20:32:00,SystemResetWarning,0839.5,4.99,000.00,029.0,026.3,000.0,037.4,030.5,21.9,0001.7,0005.11,0014.26,0004.33
2023-08-14 20:33:00,SystemResetWarning,0839.6,5.00,000.00,029.0,026.7,000.0,037.4,030.6,22.1,0001.4,0005.11,0013.89,0004.33
2023-08-14 20:34:00,SystemResetWarning,0839.6,5.00,000.00,029.0,027.0,000.0,037.4,030.7,22.0,0000.6,0005.10,0013.56,0004.33
2023-08-14 20:35:00,SystemResetWarning,0839.5,5.00,000.00,029.1,027.3,000.0,037.5,030.8,21.6,0000.6,0005.11,0013.58,0004.33
2023-08-14 20:36:00,SystemResetWarning,0839.5,5.01,000.00,029.1,027.6,000.0,037.5,030.8,21.9,0001.0,0005.10,0013.22,0004.33
2023-08-14 20:37:00,SystemResetWarning,0839.5,5.00,000.00,029.2,027.8,000.0,037.5,030.9,21.8,0001.3,0005.06,0012.63,0004.33
2023-08-14 20:38:00,SystemResetWarning,0839.5,4.99,000.00,029.2,028.0,000.0,037.5,031.0,21.4,0001.9,0005.12,0012.77,0004.34
2023-08-14 20:39:00,SystemResetWarning,0839.5,4.98,000.00,029.2,027.2,000.0,037.5,030.8,21.4,0001.9,0005.13,0012.69,0004.34
2023-08-14 20:40:00,SystemResetWarning,0839.5,5.01,000.00,029.2,025.7,000.0,037.4,030.5,21.7,0002.3,0005.14,0013.18,0004.35
2023-08-14 20:41:00,SystemResetWarning,0839.5,5.02,000.00,029.1,025.7,000.0,037.3,030.5,21.6,0002.3,0005.12,0013.40,0004.36
2023-08-14 20:42:00,SystemResetWarning,0839.5,4.99,000.00,029.0,025.9,000.0,037.4,030.4,21.4,0002.1,0005.12,0013.11,0004.37
2023-08-14 20:43:00,SystemResetWarning,0839.4,5.00,000.00,029.0,026.3,000.0,037.4,030.5,21.1,0002.0,0005.10,0013.92,0004.38
2023-08-14 20:44:00,SystemResetWarning,0839.5,5.00,000.00,029.0,026.7,000.0,037.4,030.6,21.4,0002.0,0005.10,0014.66,0004.39
2023-08-14 20:45:00,SystemResetWarning,0839.5,5.00,000.00,029.1,027.0,000.0,037.5,030.7,21.9,0002.5,0005.11,0015.06,0004.40
2023-08-14 20:46:00,SystemResetWarning,0839.4,5.00,000.00,029.1,027.3,000.0,037.5,030.8,21.4,0002.7,0005.09,0014.95,0004.40
2023-08-14 20:47:00,SystemResetWarning,0839.4,5.00,000.00,029.1,027.5,000.0,037.5,030.9,21.0,0003.0,0005.08,0014.41,0004.40
2023-08-14 20:48:00,SystemResetWarning,0839.4,5.01,000.00,029.2,027.8,000.0,037.5,030.9,21.4,0002.9,0005.08,0014.09,0004.40
2023-08-14 20:49:00,SystemResetWarning,0839.5,4.99,000.00,029.2,027.9,000.0,037.6,031.0,21.2,0002.1,0005.08,0013.33,0004.40
2023-08-14 20:50:00,SystemResetWarning,0839.4,4.98,000.00,029.2,026.5,000.0,037.5,030.8,21.4,0002.3,0005.08,0014.14,0004.40
2023-08-14 20:51:00,SystemResetWarning,0839.4,5.01,000.00,029.2,025.6,000.0,037.4,030.5,21.2,0002.4,0005.05,0014.61,0004.38
2023-08-14 20:52:00,SystemResetWarning,0839.4,5.01,000.00,029.1,025.7,000.0,037.3,030.4,21.2,0002.4,0005.03,0015.56,0004.38
2023-08-14 20:53:00,SystemResetWarning,0839.5,5.00,000.00,029.0,026.0,000.0,037.4,030.4,21.6,0002.6,0005.07,0015.75,0004.38
2023-08-14 20:54:00,SystemResetWarning,0839.4,5.00,000.00,029.0,026.4,000.0,037.4,030.5,21.2,0002.9,0005.13,0014.67,0004.38
2023-08-14 20:55:00,SystemResetWarning,0839.3,5.00,000.00,029.1,026.8,000.0,037.5,030.6,21.4,0002.8,0005.14,0013.93,0004.37
2023-08-14 20:56:00,SystemResetWarning,0839.4,5.00,000.00,029.1,027.1,000.0,037.5,030.8,21.3,0000.0,0005.13,0013.49,0004.37
2023-08-14 20:57:00,SystemResetWarning,0839.3,5.00,000.00,029.1,027.4,000.0,037.5,030.8,21.5,0001.6,0005.15,0013.37,0004.37
2023-08-14 20:58:00,SystemResetWarning,0839.4,5.00,000.00,029.2,027.6,000.0,037.5,030.9,21.7,0001.6,0005.18,0013.45,0004.37
2023-08-14 20:59:00,SystemResetWarning,0839.4,5.00,000.00,029.2,027.8,000.0,037.6,031.0,21.5,0001.2,0005.17,0013.45,0004.37
